Change the Weather History Date:

Tuesday, May 28, 2013

  Actual Average Record
Temperature  
Mean Temperature 82 °F -  
Max Temperature 90 °F 88 °F 95 °F (2011)
Min Temperature 74 °F 75 °F 74 °F (2013)
Cooling Degree Days 17    
Growing Degree Days 32 (Base 50)    
Moisture  
Dew Point 74 °F    
Average Humidity 82    
Maximum Humidity 94    
Minimum Humidity 52    
Precipitation  
Precipitation 0.08 in - - ()
Sea Level Pressure  
Sea Level Pressure 29.83 in    
Wind  
Wind Speed 2 mph ()    
Max Wind Speed 8 mph    
Max Gust Speed -    
Visibility 6.1 miles    
Events Rain , Thunderstorm    
Averages and records for this station are not official NWS values.
T = Trace of Precipitation, MM = Missing Value Source: Averaged Metar Reports

Daily Weather History Graph

Daily Weather History Graph

Search for Another Location

Airport or City:

Trip Planner

Search our weather history database for the weather conditions in past years. The results will help you decide how hot, cold, wet, or windy it might be!

Date:

Astronomy

May. 28, 2013 Rise Set
Actual Time 6:01 AM ICT 6:30 PM ICT
Civil Twilight 5:38 AM ICT 6:52 PM ICT
Nautical Twilight 5:12 AM ICT 7:19 PM ICT
Astronomical Twilight 4:45 AM ICT 7:45 PM ICT
Moon 9:49 PM ICT (5/28) 9:00 AM ICT (5/28)
Length of Visible Light 13h 14m
Length of Day
12h 29m
Waning Gibbous, 87% of the Moon is Illuminated
May 28
Waning Gibbous
Jun 1
Last Quarter
Jun 8
New
Jun 17
First Quarter
Jun 23
Full

Hourly Weather History & Observations

Time (ICT) Temp. Heat Index Dew Point Humidity Pressure Visibility Wind Dir Wind Speed Gust Speed Precip Events Conditions
12:00 AM 77.0 °F - 71.6 °F 83% 29.83 in 6.2 mi Calm Calm - N/A   Scattered Clouds
12:30 AM 77.0 °F - 71.6 °F 83% 29.83 in 5.6 mi ESE 2.3 mph - N/A   Scattered Clouds
1:00 AM 77 °F - 72 °F 79% 29.84 in 6 mi SSE 2.3 mph - -   Mist
1:00 AM 77.0 °F - 71.6 °F 83% 29.83 in 5.6 mi SSE 2.3 mph - N/A   Mostly Cloudy
1:30 AM 77.0 °F - 71.6 °F 83% 29.83 in 5.6 mi SSE 3.5 mph - N/A   Mostly Cloudy
2:00 AM 75.2 °F - 71.6 °F 89% 29.83 in 6.2 mi Calm Calm - N/A   Mostly Cloudy
2:30 AM 77.0 °F - 71.6 °F 83% 29.80 in 6.2 mi Calm Calm - N/A   Mostly Cloudy
3:00 AM 75.2 °F - 71.6 °F 89% 29.80 in 6.2 mi Calm Calm - N/A   Mostly Cloudy
3:30 AM 75.2 °F - 71.6 °F 89% 29.80 in 6.2 mi SSE 3.5 mph - N/A   Mostly Cloudy
4:00 AM 75.2 °F - 71.6 °F 89% 29.80 in 6.2 mi Calm Calm - N/A   Mostly Cloudy
4:30 AM 75.2 °F - 71.6 °F 89% 29.80 in 6.2 mi Calm Calm - N/A   Mostly Cloudy
5:00 AM 75.2 °F - 71.6 °F 89% 29.83 in 6.2 mi Calm Calm - N/A   Scattered Clouds
5:30 AM 75.2 °F - 71.6 °F 89% 29.83 in 6.2 mi Calm Calm - N/A   Scattered Clouds
6:00 AM 75.2 °F - 71.6 °F 89% 29.83 in 6.2 mi WSW 3.5 mph - N/A   Mostly Cloudy
6:30 AM 75.2 °F - 73.4 °F 94% 29.83 in 6.2 mi SW 2.3 mph - N/A   Mostly Cloudy
7:00 AM 76 °F - 72 °F 85% 29.83 in 6 mi WSW 2.3 mph - -   Scattered Clouds
7:00 AM 75.2 °F - 71.6 °F 89% 29.83 in 6.2 mi WSW 2.3 mph - N/A   Mostly Cloudy
7:30 AM 78.8 °F - 73.4 °F 83% 29.83 in 6.2 mi SW 2.3 mph - N/A   Mostly Cloudy
8:00 AM 80.6 °F 85.4 °F 73.4 °F 79% 29.83 in 6.2 mi Calm Calm - N/A   Mostly Cloudy
8:30 AM 84.2 °F 92.3 °F 75.2 °F 74% 29.86 in 6.2 mi SSE 3.5 mph - N/A   Mostly Cloudy
9:00 AM 86.0 °F 95.1 °F 75.2 °F 70% 29.86 in 6.2 mi South 3.5 mph - N/A   Mostly Cloudy
9:30 AM 87.8 °F 95.6 °F 73.4 °F 62% 29.86 in 6.2 mi Calm Calm - N/A   Mostly Cloudy
10:00 AM 89.6 °F 98.2 °F 73.4 °F 59% 29.86 in 6.2 mi West 3.5 mph - N/A   Mostly Cloudy
10:30 AM 91.4 °F 100.1 °F 73.4 °F 55% 29.86 in 6.2 mi West 3.5 mph - N/A   Mostly Cloudy
11:00 AM 89.6 °F 98.2 °F 73.4 °F 59% 29.86 in 6.2 mi SSW 4.6 mph - N/A   Mostly Cloudy
11:30 AM 89.6 °F 98.2 °F 73.4 °F 59% 29.86 in 6.2 mi WNW 2.3 mph - N/A   Mostly Cloudy
12:00 PM 91.4 °F 98.4 °F 71.6 °F 52% 29.83 in 6.2 mi West 3.5 mph - N/A   Mostly Cloudy
12:30 PM 87.8 °F 97.6 °F 75.2 °F 66% 29.83 in 6.2 mi East 3.5 mph - N/A   Mostly Cloudy
1:00 PM 84 °F - 75 °F 69% 29.83 in 6 mi SE 5.8 mph - - Rain Light Rain
1:00 PM 84.2 °F 92.3 °F 75.2 °F 74% 29.83 in 6.2 mi SE 5.8 mph - N/A   Mostly Cloudy
1:30 PM 84.2 °F 92.3 °F 75.2 °F 74% 29.83 in 6.2 mi SE 5.8 mph - N/A   Mostly Cloudy
2:00 PM 87.8 °F 99.7 °F 77.0 °F 70% 29.80 in 6.2 mi South 4.6 mph - N/A   Mostly Cloudy
2:30 PM 89.6 °F 99.8 °F 75.2 °F 62% 29.80 in 6.2 mi South 6.9 mph - N/A   Mostly Cloudy
3:00 PM 89.6 °F 99.8 °F 75.2 °F 62% 29.77 in 6.2 mi SSW 3.5 mph - N/A   Mostly Cloudy
3:30 PM 86.0 °F 95.1 °F 75.2 °F 70% 29.77 in 6.2 mi WNW 5.8 mph - N/A Rain Light Rain
3:50 PM 80.6 °F 86.2 °F 75.2 °F 84% 29.80 in 6.2 mi ENE 8.1 mph - N/A Rain , Thunderstorm Light Thunderstorms and Rain
4:00 PM 80.6 °F 86.2 °F 75.2 °F 84% 29.80 in 6.2 mi ENE 8.1 mph - N/A Rain , Thunderstorm Light Thunderstorms and Rain
4:30 PM 77.0 °F - 75.2 °F 94% 29.80 in 6.2 mi East 6.9 mph - N/A Rain , Thunderstorm Light Thunderstorms and Rain
5:00 PM 77.0 °F - 75.2 °F 94% 29.80 in 6.2 mi East 4.6 mph - N/A Rain Light Rain
5:30 PM 77.0 °F - 75.2 °F 94% 29.80 in 6.2 mi SSE 3.5 mph - N/A   Mostly Cloudy
6:00 PM 77.0 °F - 75.2 °F 94% 29.80 in 6.2 mi Calm Calm - N/A Rain Light Rain
6:30 PM 77.0 °F - 75.2 °F 94% 29.80 in 6.2 mi Calm Calm - N/A Rain Light Rain
7:00 PM 78 °F - 75 °F 88% 29.81 in 6 mi Calm Calm - - Rain Light Rain
7:00 PM 78.8 °F - 75.2 °F 89% 29.80 in 6.2 mi Calm Calm - N/A   Mostly Cloudy
7:30 PM 77.0 °F - 75.2 °F 94% 29.83 in 6.2 mi Calm Calm - N/A   Mostly Cloudy
8:00 PM 77.0 °F - 75.2 °F 94% 29.83 in 6.2 mi SSE 3.5 mph - N/A   Mostly Cloudy
8:30 PM 77.0 °F - 75.2 °F 94% 29.83 in 6.2 mi South 3.5 mph - N/A   Mostly Cloudy
9:00 PM 77.0 °F - 75.2 °F 94% 29.86 in 6.2 mi Calm Calm - N/A   Mostly Cloudy
9:30 PM 77.0 °F - 75.2 °F 94% 29.86 in 6.2 mi ENE 3.5 mph - N/A   Mostly Cloudy
10:00 PM 77.0 °F - 75.2 °F 94% 29.86 in 6.2 mi Calm Calm - N/A   Mostly Cloudy
10:30 PM 77.0 °F - 75.2 °F 94% 29.86 in 5.6 mi Calm Calm - N/A   Mostly Cloudy
11:00 PM 77.0 °F - 75.2 °F 94% 29.86 in 5.0 mi Calm Calm - N/A   Mostly Cloudy
11:30 PM 77.0 °F - 75.2 °F 94% 29.86 in 5.0 mi SSE 3.5 mph - N/A   Mostly Cloudy